Location: Hoyos del Collado
(40.3594°N, 5.2003°W)
Time: 02:16:48
(UTC+00:00)

ADEOS - Pass Details

Date: 18 April 2024
Orbit: 790 x 793 km, 98.9° (Epoch: 25 May)

Event Time Altitude Azimuth Distance (km) Brightness Sun altitude
Rises 19:21:27 0° 170° (S) 3,278 6.5 -4.1°
Reaches altitude 10° 19:23:46 10° 172° (S) 2,353 5.8 -4.6°
Maximum altitude 19:28:57 73° 257° (WSW) 833 3.9 -5.5°
Drops below altitude 10° 19:34:11 10° 342° (NNW) 2,369 6.6 -6.4°
Sets 19:36:32 0° 345° (NNW) 3,303 7.4 -6.8°
